Regional Weather Roundup
Issued by NWS

Home | Current Version | Previous Version | Text Only | Print | Product List | Glossary Off
Versions: 1 2 3 4 5 6 7 8 9 10 11 12 13 14 15 16 17 18 19 20 21 22 23 24 25 26 27 28 29 30 31 32 33 34 35 36 37 38 39 40 41 42 43 44 45 46 47 48 49 50

727
ASUS43 KMKX 241700
RWRWI

WISCONSIN REGIONAL WEATHER ROUNDUP
NATIONAL WEATHER SERVICE MILWAUKEE/SULLIVAN WI
1200 PM CDT SAT SEP 24 2016

NOTE: "FAIR" INDICATES FEW OR NO CLOUDS BELOW 12,000 FEET WITH NO
SIGNIFICANT WEATHER AND/OR OBSTRUCTIONS TO VISIBILITY.

WIZ001-002-006>008-014>016-023>028-241800-
NORTHWEST WISCONSIN

CITY           SKY/WX    TMP DP  RH WIND       PRES   REMARKS
SUPERIOR ARPT  CLOUDY    58  56  94 E7        30.15F
ASHLAND        CLOUDY    67  58  72 SE8       30.17F
HAYWARD        CLOUDY    62  57  83 S9G16     30.17F
SIREN          CLOUDY    63  58  84 SE12G18   30.13F
CUMBERLAND     CLOUDY    59  57  94 SE10      30.16S
RICE LAKE      CLOUDY    62  58  88 SE13G18   30.18S
CHETEK         NOT AVBL
LADYSMITH      CLOUDY    63  57  81 SE10      30.21S
EAU CLAIRE     NOT AVBL
MENOMONIE      CLOUDY    66  60  81 E12G17    30.16S
NEW RICHMOND   CLOUDY    64  61  91 SE9G16    30.14R
OSCEOLA        CLOUDY    65  65 100 SE12G22   30.15S
$$

WIZ003>005-009-010-017-018-241800-
NORTH CENTRAL WISCONSIN

CITY           SKY/WX    TMP DP  RH WIND       PRES   REMARKS
MANITOWISH WTR NOT AVBL
ARBOR VITAE    CLOUDY    63  56  78 S8        30.23S
WOODRUFF       CLOUDY    63  56  78 S8        30.23S
RHINELANDER    CLOUDY    64  54  69 SE10      30.24F
EAGLE RIVER    PTSUNNY   63  51  67 SE10      30.24F
LAND O LAKES   CLOUDY    62  52  71 S10       30.26F
PHILLIPS       CLOUDY    60  56  87 SE10      30.21F
TOMAHAWK       CLOUDY    62  55  77 SE7       30.24S
MEDFORD        CLOUDY    60  60 100 SE10      30.22S
MERRILL        CLOUDY    62  56  80 SE12G17   30.24F
$$

WIZ029-030-035-036-043>047-241800-
CENTRAL WISCONSIN

CITY           SKY/WX    TMP DP  RH WIND       PRES   REMARKS
WAUSAU         CLOUDY    63  54  72 SE12      30.22F
MOSINEE        CLOUDY    63  57  82 E8        30.24F
MARSHFIELD     CLOUDY    62  57  83 SE13      30.22S
STEVENS POINT  CLOUDY    63  55  75 E13       30.24S
WAUPACA        PTSUNNY   69  56  62 SE14      30.25S
WAUTOMA        CLOUDY    66  56  70 E9        30.23F
WISC RAPIDS    CLOUDY    64  58  80 SE9       30.24S
CAMP DOUGLAS   CLOUDY    61  59  94 E9        30.21S
$$

WIZ011>013-019>022-031-037>040-048>050-241800-
NORTHEAST WISCONSIN

CITY           SKY/WX    TMP DP  RH WIND       PRES   REMARKS
ANTIGO         CLOUDY    61  54  76 SE14      30.26F
SHAWANO        CLOUDY    67  54  63 E12       30.25F
OCONTO         NOT AVBL
STURGEON BAY   SUNNY     65  52  62 SE9G16    30.27F
GREEN BAY      PTSUNNY   65  54  67 SE7       30.25F
MANITOWOC      NOT AVBL
APPLETON       PTSUNNY   64  52  63 E10       30.23F
CLINTONVILLE   NOT AVBL
OSHKOSH        CLOUDY    65  55  70 E13       30.23F
$$

WIZ032>034-041-042-053>061-241800-
SOUTHWEST WISCONSIN

CITY           SKY/WX    TMP DP  RH WIND       PRES   REMARKS
LA CROSSE      CLOUDY    69  63  81 SE8       30.16S
SPARTA         CLOUDY    65  60  83 E12       30.19F
VIROQUA        CLOUDY    65  61  88 E9        30.19S
BOSCOBEL       CLOUDY    69  63  81 NE5       30.18R
PRAIRIE DU CHI CLOUDY    67  62  83 SE5       30.16R
PLATTEVILLE    CLOUDY    67  65  93 E10       30.17F
$$

WIZ056-057-062-063-064-067-068-241800-
SOUTH CENTRAL WISCONSIN

CITY           SKY/WX    TMP DP  RH WIND       PRES   REMARKS
REEDSBURG      NOT AVBL
BARABOO/DELLS  CLOUDY    61  59  92 E6        30.22S
LONE ROCK      NOT AVBL
MINERAL POINT  CLOUDY    68  63  83 E9G16     30.19S
MADISON        CLOUDY    65  59  81 E12       30.21S
MIDDLETON      CLOUDY    65  62  90 E13       30.22S
WATERTOWN      CLOUDY    65  59  80 E12G17    30.22F
MONROE         CLOUDY    68  61  77 E12       30.19F
JANESVILLE     CLOUDY    68  61  77 E10       30.20S
$$

WIZ051-052-058>065-066-070>072-241800-
SOUTHEAST WISCONSIN

CITY           SKY/WX    TMP DP  RH WIND       PRES   REMARKS
MILWAUKEE      CLOUDY    67  60  78 E8        30.23F
WAUKESHA       PTSUNNY   63  55  77 E10       30.24S
MILWAUKEE/TIMM CLOUDY    64  55  72 E6        30.25S
RACINE         CLOUDY    69  61  75 E10       30.24F
BURLINGTON     PTSUNNY   65  57  77 E8        30.22S
KENOSHA        CLOUDY    66  60  81 E12       30.23R
FOND DU LAC    CLOUDY    66  56  70 E14       30.24F
SHEBOYGAN      PTSUNNY   64  55  72 E10       30.26S
WEST BEND      CLOUDY    63  55  77 E8        30.25S
JUNEAU         CLOUDY    65  56  73 E10       30.24S
$$

LSZ147-162-241800-
LAKE SUPERIOR

STATION/POSITION TIME  TEMP    WIND        PRES    WAVE
                       AIR SEA DIR/SP/G            HT/PER
                 (UTC) (F)     (DEG/KT/KT) (MB)    (FT/S)
W MID LAKE BUOY  1550   60 60  140/ 14/ 16 1022.7F   2/ 4
DEVILS ISLAND    1600   61     110/  9/ 10 1022.5F
SAXON HARBOR     1600   67     170/  3/  9 1021.7
$$

LMZ867-665-643>646-241800-
LAKE MICHIGAN

STATION/POSITION TIME  TEMP    WIND        PRES    WAVE
                       AIR SEA DIR/SP/G            HT/PER
                 (UTC) (F)     (DEG/KT/KT) (MB)    (FT/S)
CHAMBERS ISLAND  1600   63     110/  6/ 10 1025.1F
S GREEN BAY BUOY 1630   63 66  120/ 10/ 10 1024.2F
N MID LAKE BUOY  1550   60 68  140/ 12/ 16 1025.5F   2/ 3
NORTHPORT PIER   1600   62     130/ 12/ 14 1025.4F
SISTER BAY       1538   67     130/ 12/ 17   N/A
KEWAUNEE LAKESHO 1600   63     130/  6/ 11 1024.7F
SHEBOYGAN LAKESH 1600   62     100/ 12/ 14 1024.5R
PORT WASHINGTON  1600   62      90/  4/  5 1025.1R
ATWATER BUOY     1600   63 62  120/  8/ 10 1023.8R
MILWAUKEE LAKESH 1610   63      80/  6/  6   N/A
S MID LAKE BUOY  1550   65 72  110/ 14/ 16 1022.7S   3/ 5
KENOSHA   LAKESH 1600   65      90/ 10/ 11 1023.0S
$$

TC  - TEMPERATURE IN CELSIUS
VSB - VISIBILITY IN STATUTE MILES
WCI - WIND CHILL INDEX
HX  - HEAT INDEX





USA.gov is the U.S. government's official web portal to all federal, state and local government web resources and services.